sat.trackr.live / text

‹ back to catalog

STARLINK-31219

NORAD 58866 · 2024-019P

PAYLOAD ACTIVE UNKNOWN

§ Identity

Operator
Country
US
Launch date
2024-01-29
Launch site
AFETR
Launch vehicle
Mass (kg)
RCS (m²)

Purposes: comms

External: N2YO · Heavens-Above · Gunter

§ Orbital elements

Epoch: 2026-05-24T10:58:52.150656Z

Period
94.27 min
Inclination
43.0005°
Eccentricity
0.0001197
Mean motion
15.27587862 rev/d
Perigee alt
482.2 km
Apogee alt
483.8 km
Semi-major
6,861.2 km
B*
3.1793e-5
RAAN
180.7246°
Arg perigee
276.9216°
Mean anomaly
83.1499°
Rev number
13,065

§ Raw data

STARLINK-312191 58866U 24019P   26144.45754804  .00000613  00000+0  31793-4 0  99992 58866  43.0005 180.7246 0001197 276.9216  83.1499 15.27587862130656

JSON: /api/v1/satellites/58866 · /tle

For live sub-satellite position, see the globe view (requires WebGL).

§ Visibility from observer

Set your observer location to see the next 7 days of passes ≥ 10°. The values pass through the URL so the page stays shareable.

No JS? Fill the form by hand. The geolocation button needs JavaScript.